De Quincy Industrial Air Park, LA

6:46 PM CDT on October 20, 2017 (GMT -0500)
De Quincy Industrial Air Park

Weather History for K5R8 - May, 2014

Change the Weather History Date:

Wednesday, May 28, 2014

  Actual Average (KCWF) Record (KCWF)
Temperature  
Mean Temperature 74 °F -  
Max Temperature 80 °F 87 °F 93 °F (1998)
Min Temperature 67 °F 71 °F 62 °F (2016)
Cooling Degree Days 8    
Growing Degree Days 24 (Base 50)    
Moisture  
Dew Point 68 °F    
Average Humidity 88    
Maximum Humidity 98    
Minimum Humidity 68    
Precipitation  
Precipitation 0.51 in - - ()
Sea Level Pressure  
Sea Level Pressure 29.85 in    
Wind  
Wind Speed 2 mph (WSW)    
Max Wind Speed 12 mph    
Max Gust Speed 16 mph    
Visibility 10 miles    
Events Rain , Thunderstorm    
Averages and records for this station are not official NWS values.
T = Trace of Precipitation, MM = Missing Value Source: NWS Daily Summary

Daily Weather History Graph

Daily Weather History Graph

Search for Another Location

Airport or City:

Trip Planner

Search our weather history database for the weather conditions in past years. The results will help you decide how hot, cold, wet, or windy it might be!

Date:

Astronomy

May. 28, 2014 Rise Set
Actual Time 6:13 AM CDT 8:09 PM CDT
Civil Twilight 5:46 AM CDT 8:36 PM CDT
Nautical Twilight 5:13 AM CDT 9:09 PM CDT
Astronomical Twilight 4:38 AM CDT 9:43 PM CDT
Moon 6:15 AM CDT (5/28) 8:12 PM CDT (5/28)
Length of Visible Light 14h 49m
Length of Day
13h 55m
Waning Crescent, 0% of the Moon is Illuminated
May 28
Waning Crescent
May 28
New
Jun 5
First Quarter
Jun 12
Full
Jun 19
Last Quarter

Hourly Weather History & Observations

Time (CDT) Temp. Heat Index Dew Point Humidity Pressure Visibility Wind Dir Wind Speed Gust Speed Precip Events Conditions
12:15 AM 67.3 °F - 65.8 °F 95% 29.91 in 10.0 mi Calm Calm - 0.01 in   Mostly Cloudy
12:35 AM 67.1 °F - 65.8 °F 96% 29.90 in 10.0 mi Calm Calm - 0.02 in   Mostly Cloudy
12:55 AM 67.3 °F - 66.2 °F 96% 29.90 in 10.0 mi Calm Calm - 0.02 in   Overcast
1:15 AM 67.6 °F - 66.2 °F 95% 29.90 in 10.0 mi Calm Calm - N/A   Overcast
1:35 AM 67.8 °F - 66.4 °F 95% 29.90 in 10.0 mi Calm Calm - 0.01 in   Overcast
1:55 AM 67.6 °F - 66.6 °F 96% 29.89 in 10.0 mi Calm Calm - 0.02 in   Overcast
2:15 AM 68.0 °F - 66.7 °F 96% 29.88 in 10.0 mi Calm Calm - N/A   Overcast
2:35 AM 67.6 °F - 66.7 °F 97% 29.87 in 10.0 mi Calm Calm - 0.01 in   Scattered Clouds
2:55 AM 68.0 °F - 67.1 °F 97% 29.87 in 7.0 mi Calm Calm - 0.02 in   Mostly Cloudy
3:15 AM 68.2 °F - 67.5 °F 98% 29.86 in 7.0 mi Calm Calm - N/A   Overcast
3:35 AM 68.4 °F - 67.6 °F 98% 29.84 in 7.0 mi Calm Calm - 0.01 in   Overcast
4:15 AM 68.5 °F - 67.8 °F 98% 29.81 in 10.0 mi Calm Calm - N/A Thunderstorm Thunderstorm
4:35 AM 68.9 °F - 68.0 °F 97% 29.81 in 7.0 mi East 3.5 mph - 0.01 in Rain , Thunderstorm Light Thunderstorms and Rain
4:55 AM 68.9 °F - 68.0 °F 97% 29.82 in 10.0 mi Calm Calm - 0.02 in Thunderstorm Thunderstorm
5:15 AM 69.1 °F - 68.2 °F 97% 29.82 in 7.0 mi Calm Calm - N/A Rain , Thunderstorm Light Thunderstorms and Rain
5:35 AM 68.9 °F - 68.0 °F 97% 29.81 in 10.0 mi NNE 3.5 mph - 0.01 in Rain , Thunderstorm Rain
5:55 AM 69.3 °F - 68.2 °F 96% 29.84 in 7.0 mi NW 11.5 mph - 0.02 in Rain , Thunderstorm Heavy Thunderstorms and Rain
6:15 AM 68.5 °F - 67.1 °F 95% 29.85 in 3.0 mi NW 6.9 mph 16.1 mph N/A Rain , Thunderstorm Heavy Thunderstorms and Rain
6:35 AM 68.0 °F - 66.9 °F 96% 29.85 in 10.0 mi North 4.6 mph - 0.01 in Rain , Thunderstorm Light Thunderstorms and Rain
6:55 AM 68.0 °F - 66.7 °F 96% 29.85 in 7.0 mi Calm Calm - 0.03 in Rain , Thunderstorm Thunderstorms and Rain
7:15 AM 67.8 °F - 66.7 °F 96% 29.84 in 5.0 mi NNE 3.5 mph - 0.01 in Rain , Thunderstorm Rain
7:35 AM 67.6 °F - 66.7 °F 97% 29.84 in 10.0 mi NNE 5.8 mph - 0.02 in Rain , Thunderstorm Rain
8:15 AM 67.6 °F - 66.6 °F 96% 29.86 in 10.0 mi NE 4.6 mph - 0.01 in Thunderstorm Overcast
8:35 AM 68.0 °F - 66.4 °F 95% 29.86 in 10.0 mi Calm Calm - 0.02 in   Overcast
8:55 AM 68.7 °F - 66.9 °F 94% 29.88 in 10.0 mi NNW 6.9 mph - 0.03 in   Overcast
9:15 AM 68.5 °F - 66.7 °F 94% 29.88 in 10.0 mi Calm Calm - 0.01 in   Overcast
9:35 AM 69.4 °F - 67.3 °F 93% 29.88 in 10.0 mi Calm Calm - 0.02 in   Overcast
9:55 AM 70.3 °F - 67.1 °F 89% 29.88 in 10.0 mi Calm Calm - 0.03 in   Overcast
10:15 AM 71.2 °F - 67.5 °F 88% 29.88 in 10.0 mi Calm Calm - 0.01 in   Overcast
10:35 AM 71.4 °F - 68.2 °F 89% 29.88 in 10.0 mi Calm Calm - 0.02 in   Overcast
10:55 AM 72.7 °F - 68.2 °F 86% 29.89 in 10.0 mi Calm Calm - 0.03 in   Overcast
11:15 AM 73.4 °F - 68.5 °F 85% 29.88 in 10.0 mi Calm Calm - 0.01 in   Mostly Cloudy
11:35 AM 75.0 °F - 68.9 °F 81% 29.88 in 10.0 mi Calm Calm - 0.02 in   Mostly Cloudy
11:50 AM 75.6 °F - 68.2 °F 78% 29.87 in 10.0 mi Calm Calm - 0.03 in   Mostly Cloudy
12:15 PM 75.7 °F - 69.4 °F 81% 29.87 in 10.0 mi NNW 4.6 mph - 0.01 in   Mostly Cloudy
12:35 PM 75.7 °F - 69.3 °F 80% 29.86 in 10.0 mi WNW 3.5 mph - 0.02 in   Overcast
12:55 PM 76.5 °F - 68.9 °F 77% 29.86 in 10.0 mi SW 5.8 mph - 0.03 in   Overcast
1:15 PM 78.6 °F - 70.2 °F 75% 29.86 in 10.0 mi SSW 5.8 mph - 0.01 in   Mostly Cloudy
1:35 PM 77.9 °F - 68.5 °F 73% 29.86 in 10.0 mi South 5.8 mph - 0.02 in   Mostly Cloudy
1:55 PM 77.9 °F - 68.7 °F 73% 29.85 in 10.0 mi SW 5.8 mph - 0.03 in   Overcast
2:15 PM 78.8 °F - 68.5 °F 71% 29.85 in 10.0 mi SW 3.5 mph - 0.01 in   Overcast
2:35 PM 78.1 °F - 67.8 °F 71% 29.84 in 10.0 mi South 3.5 mph - 0.02 in Rain Light Rain
2:55 PM 78.6 °F - 70.5 °F 76% 29.84 in 10.0 mi SSW 3.5 mph - 0.03 in   Overcast
3:15 PM 78.6 °F - 68.9 °F 72% 29.84 in 10.0 mi SW 4.6 mph - 0.01 in   Overcast
3:35 PM 80.1 °F 83.6 °F 71.1 °F 74% 29.83 in 10.0 mi South 8.1 mph - 0.02 in   Overcast
3:55 PM 77.9 °F - 70.3 °F 77% 29.82 in 10.0 mi SSW 4.6 mph - 0.02 in   Overcast
4:15 PM 77.9 °F - 70.7 °F 78% 29.82 in 10.0 mi Calm Calm - N/A   Overcast
4:35 PM 79.0 °F - 69.4 °F 72% 29.81 in 10.0 mi Calm Calm - 0.01 in   Scattered Clouds
4:55 PM 79.7 °F - 68.7 °F 69% 29.81 in 10.0 mi SSW 4.6 mph - 0.02 in   Mostly Cloudy
5:15 PM 79.7 °F - 68.4 °F 68% 29.81 in 10.0 mi WSW 4.6 mph - 0.01 in   Scattered Clouds
5:35 PM 78.6 °F - 68.9 °F 72% 29.80 in 10.0 mi WSW 3.5 mph - 0.01 in   Mostly Cloudy
5:55 PM 79.7 °F - 69.3 °F 70% 29.80 in 10.0 mi WSW 4.6 mph - 0.02 in   Scattered Clouds
6:15 PM 78.6 °F - 70.0 °F 75% 29.80 in 10.0 mi SSE 3.5 mph - 0.01 in   Mostly Cloudy
6:35 PM 76.6 °F - 69.3 °F 78% 29.80 in 10.0 mi Calm Calm - 0.01 in   Overcast
6:55 PM 76.1 °F - 69.6 °F 80% 29.81 in 10.0 mi Calm Calm - 0.02 in   Overcast
7:15 PM 75.2 °F - 69.6 °F 83% 29.81 in 10.0 mi NNW 6.9 mph - 0.01 in   Overcast
7:35 PM 73.4 °F - 67.6 °F 82% 29.81 in 10.0 mi NW 3.5 mph - 0.01 in   Overcast
7:55 PM 72.9 °F - 67.5 °F 83% 29.82 in 10.0 mi Calm Calm - 0.02 in   Overcast
8:15 PM 71.8 °F - 68.4 °F 89% 29.82 in 10.0 mi Calm Calm - N/A   Overcast
8:35 PM 70.9 °F - 68.2 °F 91% 29.82 in 10.0 mi Calm Calm - 0.01 in   Mostly Cloudy
8:55 PM 70.7 °F - 68.7 °F 93% 29.82 in 10.0 mi Calm Calm - 0.01 in   Mostly Cloudy
9:15 PM 70.3 °F - 68.7 °F 95% 29.83 in 10.0 mi Calm Calm - N/A   Mostly Cloudy
9:35 PM 69.6 °F - 68.4 °F 96% 29.83 in 10.0 mi Calm Calm - 0.01 in   Overcast
10:15 PM 69.6 °F - 68.5 °F 96% 29.83 in 10.0 mi Calm Calm - 0.01 in   Mostly Cloudy
10:35 PM 70.0 °F - 68.9 °F 96% 29.84 in 10.0 mi Calm Calm - 0.01 in   Overcast
10:55 PM 69.8 °F - 68.7 °F 96% 29.84 in 10.0 mi Calm Calm - 0.01 in   Overcast
11:15 PM 69.1 °F - 68.2 °F 97% 29.84 in 10.0 mi Calm Calm - 0.01 in   Scattered Clouds
11:35 PM 68.4 °F - 67.6 °F 98% 29.83 in 7.0 mi Calm Calm - 0.01 in   Clear
11:55 PM 68.0 °F - 67.1 °F 97% 29.83 in 10.0 mi Calm Calm - 0.01 in   Clear